�������l�o���
Date,Time,MP-1(��Sv/h),MP-2(��Sv/h),MP-3(��Sv/h),MP-4(��Sv/h),MP-5(��Sv/h),MP-6(��Sv/h),MP-7(��Sv/h),MP-8(��Sv/h),����,����(m/s),���J
2018/08/14,00:00,0.827,1.211,0.854,1.521,1.090,0.471,0.823,0.777,�쐼,2.2,��
2018/08/14,00:10,0.827,1.211,0.853,1.522,1.093,0.472,0.821,0.778,���쐼,1.5,��
2018/08/14,00:20,0.829,1.210,0.853,1.519,1.090,0.471,0.822,0.778,���쐼,1.7,��
2018/08/14,00:30,0.829,1.210,0.854,1.518,1.091,0.472,0.822,0.779,��,1.9,��
2018/08/14,00:40,0.829,1.210,0.853,1.520,1.093,0.471,0.823,0.779,��,1.9,��
2018/08/14,00:50,0.826,1.212,0.854,1.519,1.090,0.472,0.821,0.778,��,1.7,��
2018/08/14,01:00,0.827,1.208,0.852,1.519,1.090,0.471,0.822,0.777,���쐼,1.7,��
2018/08/14,01:10,0.828,1.207,0.854,1.519,1.093,0.471,0.823,0.777,���쐼,1.9,��
2018/08/14,01:20,0.827,1.211,0.853,1.519,1.090,0.472,0.824,0.777,���쐼,2.0,��
2018/08/14,01:30,0.829,1.208,0.852,1.519,1.089,0.472,0.823,0.779,��,2.2,��
2018/08/14,01:40,0.827,1.210,0.853,1.521,1.092,0.473,0.822,0.778,��,2.6,��
2018/08/14,01:50,0.830,1.209,0.855,1.521,1.091,0.472,0.822,0.777,���k��,2.6,��
2018/08/14,02:00,0.825,1.210,0.852,1.521,1.091,0.472,0.823,0.779,���k��,2.0,��
2018/08/14,02:10,0.827,1.210,0.851,1.522,1.090,0.471,0.821,0.778,�k��,1.7,��
2018/08/14,02:20,0.828,1.210,0.854,1.519,1.093,0.472,0.821,0.778,�k��,1.9,��
2018/08/14,02:30,0.829,1.210,0.852,1.520,1.092,0.471,0.821,0.778,���k��,1.7,��
2018/08/14,02:40,0.827,1.210,0.853,1.519,1.090,0.471,0.823,0.777,�k��,2.6,��
2018/08/14,02:50,0.828,1.210,0.855,1.520,1.092,0.472,0.822,0.777,�k�k��,3.8,��
2018/08/14,03:00,0.828,1.211,0.853,1.520,1.091,0.472,0.821,0.780,�k�k��,3.5,��
2018/08/14,03:10,0.828,1.213,0.853,1.524,1.092,0.473,0.822,0.779,�k�k��,3.5,��
2018/08/14,03:20,0.827,1.210,0.853,1.522,1.091,0.472,0.823,0.779,�k�k��,3.4,��
2018/08/14,03:30,0.830,1.210,0.855,1.520,1.092,0.471,0.822,0.778,�k�k��,4.0,��
2018/08/14,03:40,0.828,1.209,0.853,1.519,1.090,0.471,0.821,0.779,�k�k��,4.5,��
2018/08/14,03:50,0.826,1.208,0.855,1.517,1.092,0.471,0.822,0.780,�k,3.4,��
2018/08/14,04:00,0.829,1.210,0.854,1.520,1.094,0.472,0.822,0.778,�k,3.0,��
2018/08/14,04:10,0.826,1.211,0.854,1.522,1.090,0.472,0.822,0.777,�k�k��,2.3,��
2018/08/14,04:20,0.828,1.210,0.854,1.519,1.092,0.473,0.822,0.781,�k�k��,3.4,��
2018/08/14,04:30,0.828,1.211,0.855,1.519,1.091,0.472,0.821,0.780,�k�k��,2.5,��
2018/08/14,04:40,0.828,1.208,0.853,1.519,1.090,0.471,0.822,0.779,�k,3.2,��
2018/08/14,04:50,0.826,1.209,0.855,1.518,1.092,0.471,0.823,0.778,�k,3.0,��
2018/08/14,05:00,0.828,1.208,0.853,1.520,1.091,0.472,0.822,0.780,�k,2.3,��
2018/08/14,05:10,0.829,1.211,0.853,1.521,1.089,0.473,0.823,0.778,�k,2.3,��
2018/08/14,05:20,0.828,1.210,0.852,1.519,1.091,0.471,0.821,0.778,�k,1.5,��
2018/08/14,05:30,0.829,1.209,0.853,1.520,1.092,0.471,0.822,0.780,�k�k��,1.2,��
2018/08/14,05:40,0.828,1.211,0.852,1.521,1.091,0.471,0.821,0.779,�k�k��,0.8,��
2018/08/14,05:50,0.828,1.213,0.852,1.523,1.091,0.472,0.823,0.781,�k,1.2,��
2018/08/14,06:00,0.826,1.210,0.854,1.524,1.090,0.472,0.823,0.780,�k,1.7,��
2018/08/14,06:10,0.829,1.210,0.853,1.521,1.092,0.472,0.824,0.779,�k�k��,1.2,��
2018/08/14,06:20,0.828,1.210,0.855,1.520,1.091,0.471,0.823,0.779,���쓌,0.6,��
2018/08/14,06:30,0.827,1.210,0.853,1.521,1.091,0.472,0.823,0.780,���쓌,1.1,��
2018/08/14,06:40,0.829,1.213,0.855,1.522,1.092,0.472,0.823,0.780,��쓌,0.9,��
2018/08/14,06:50,0.828,1.212,0.854,1.519,1.091,0.473,0.823,0.778,�쓌,0.6,��
2018/08/14,07:00,0.829,1.210,0.855,1.520,1.091,0.472,0.822,0.779,-,CALM,��
2018/08/14,07:10,0.828,1.213,0.855,1.523,1.089,0.472,0.822,0.779,�k�k��,0.9,��
2018/08/14,07:20,0.829,1.211,0.851,1.520,1.095,0.471,0.822,0.779,�k�k��,1.1,��
2018/08/14,07:30,0.828,1.213,0.852,1.522,1.094,0.472,0.826,0.779,�k�k��,1.2,��
2018/08/14,07:40,0.830,1.213,0.854,1.522,1.093,0.472,0.823,0.781,�k�k��,1.4,��
2018/08/14,07:50,0.828,1.212,0.854,1.523,1.095,0.472,0.824,0.778,�k�k��,1.4,��
2018/08/14,08:00,0.828,1.212,0.854,1.523,1.092,0.472,0.824,0.781,�k�k��,1.2,��
2018/08/14,08:10,0.829,1.210,0.854,1.519,1.096,0.472,0.823,0.779,���k��,1.5,��
2018/08/14,08:20,0.829,1.210,0.853,1.519,1.091,0.471,0.821,0.778,��,1.2,��
2018/08/14,08:30,0.829,1.211,0.853,1.522,1.093,0.472,0.824,0.777,���쓌,1.7,��
2018/08/14,08:40,0.828,1.214,0.852,1.520,1.091,0.471,0.824,0.776,�k��,1.2,��
2018/08/14,08:50,0.829,1.216,0.853,1.521,1.092,0.472,0.824,0.776,���k��,1.2,��
2018/08/14,09:00,0.829,1.216,0.852,1.522,1.093,0.471,0.825,0.776,���쓌,1.5,��
2018/08/14,09:10,0.829,1.212,0.853,1.521,1.092,0.469,0.823,0.777,���쓌,1.7,��
2018/08/14,09:20,0.828,1.216,0.854,1.518,1.093,0.470,0.824,0.776,���쓌,2.0,��
2018/08/14,09:30,0.830,1.214,0.853,1.523,1.096,0.469,0.823,0.778,�쓌,1.2,��
2018/08/14,09:40,0.830,1.217,0.852,1.522,1.095,0.470,0.824,0.777,���쓌,2.0,��
2018/08/14,09:50,0.828,1.219,0.854,1.525,1.093,0.471,0.823,0.778,���쓌,1.9,��
2018/08/14,10:00,0.829,1.219,0.852,1.524,1.095,0.471,0.824,0.776,�쓌,2.0,��
2018/08/14,10:10,0.829,1.215,0.854,1.522,1.095,0.470,0.823,0.778,�쓌,1.9,��
2018/08/14,10:20,0.830,1.217,0.855,1.524,1.095,0.471,0.821,0.781,�쓌,2.8,��
2018/08/14,10:30,0.830,1.219,0.855,1.525,1.096,0.472,0.822,0.778,�쓌,2.5,��
2018/08/14,10:40,0.831,1.218,0.856,1.523,1.097,0.473,0.823,0.778,���쓌,2.3,��
2018/08/14,10:50,0.829,1.220,0.855,1.524,1.098,0.471,0.823,0.778,�쓌,3.0,��
2018/08/14,11:00,0.830,1.218,0.855,1.525,1.096,0.472,0.821,0.779,�쓌,3.2,��
2018/08/14,11:10,0.833,1.220,0.855,1.521,1.097,0.472,0.826,0.778,�쓌,3.0,��
2018/08/14,11:20,0.833,1.220,0.856,1.523,1.097,0.472,0.823,0.779,�쓌,2.8,��
2018/08/14,11:30,0.830,1.219,0.857,1.519,1.098,0.471,0.822,0.777,�쓌,3.0,��
2018/08/14,11:40,0.835,1.221,0.859,1.523,1.100,0.472,0.822,0.779,�쓌,3.5,��
2018/08/14,11:50,0.833,1.221,0.856,1.525,1.096,0.471,0.822,0.777,��,3.2,��
2018/08/14,12:00,0.835,1.219,0.856,1.524,1.099,0.470,0.822,0.778,���쓌,3.0,��
2018/08/14,12:10,0.834,1.221,0.857,1.523,1.103,0.473,0.825,0.778,�쓌,3.5,��
2018/08/14,12:20,0.831,1.222,0.857,1.524,1.100,0.473,0.825,0.778,�쓌,2.6,��
2018/08/14,12:30,0.835,1.222,0.858,1.523,1.101,0.472,0.823,0.778,���쓌,1.7,��
2018/08/14,12:40,0.835,1.222,0.858,1.525,1.101,0.472,0.824,0.780,�쓌,3.8,��
2018/08/14,12:50,0.834,1.225,0.858,1.523,1.103,0.471,0.821,0.780,�쓌,2.3,��
2018/08/14,13:00,0.835,1.225,0.860,1.525,1.101,0.471,0.823,0.779,��쓌,2.0,��
2018/08/14,13:10,0.834,1.224,0.859,1.525,1.102,0.470,0.822,0.780,�쓌,3.9,��
2018/08/14,13:20,0.835,1.226,0.861,1.526,1.101,0.471,0.825,0.779,��쓌,4.1,��
2018/08/14,13:30,0.834,1.225,0.861,1.527,1.105,0.471,0.825,0.780,��쓌,4.4,��
2018/08/14,13:40,0.834,1.226,0.861,1.526,1.103,0.472,0.824,0.779,��쓌,4.3,��
2018/08/14,13:50,0.836,1.225,0.860,1.528,1.104,0.473,0.825,0.778,��쓌,4.7,��
2018/08/14,14:00,0.834,1.224,0.861,1.530,1.104,0.471,0.825,0.779,��쓌,4.0,��
2018/08/14,14:10,0.837,1.224,0.862,1.531,1.103,0.471,0.823,0.779,��쓌,3.9,��
2018/08/14,14:20,0.835,1.227,0.860,1.528,1.104,0.474,0.823,0.781,��쓌,4.7,��
2018/08/14,14:30,0.836,1.228,0.861,1.529,1.104,0.473,0.825,0.780,��쓌,4.1,��
2018/08/14,14:40,0.836,1.228,0.863,1.526,1.106,0.471,0.825,0.778,��,3.2,��
2018/08/14,14:50,0.837,1.229,0.861,1.530,1.104,0.472,0.825,0.779,��,3.4,��
2018/08/14,15:00,0.838,1.226,0.862,1.528,1.103,0.473,0.825,0.781,��,2.9,��
2018/08/14,15:10,0.836,1.226,0.859,1.527,1.106,0.473,0.827,0.778,��,4.2,�L
2018/08/14,15:20,0.837,1.227,0.860,1.525,1.104,0.474,0.825,0.780,��,4.1,�L
2018/08/14,15:30,0.837,1.227,0.860,1.526,1.105,0.472,0.824,0.780,��,4.6,�L
2018/08/14,15:40,0.836,1.224,0.860,1.526,1.105,0.474,0.825,0.778,��,6.8,�L
2018/08/14,15:50,0.837,1.228,0.860,1.530,1.105,0.473,0.825,0.780,��,4.8,��
2018/08/14,16:00,0.837,1.227,0.860,1.530,1.109,0.473,0.824,0.779,��,4.5,��
2018/08/14,16:10,0.838,1.227,0.861,1.532,1.108,0.474,0.825,0.782,��,4.7,��
2018/08/14,16:20,0.836,1.229,0.861,1.528,1.106,0.476,0.826,0.779,��,4.4,��
2018/08/14,16:30,0.838,1.227,0.862,1.529,1.108,0.476,0.826,0.780,��,5.0,��
2018/08/14,16:40,0.839,1.231,0.862,1.529,1.107,0.475,0.826,0.780,��,8.1,��
2018/08/14,16:50,0.839,1.229,0.862,1.529,1.105,0.477,0.826,0.781,��,8.7,��
2018/08/14,17:00,0.840,1.228,0.861,1.528,1.106,0.477,0.826,0.779,��,8.1,��
2018/08/14,17:10,0.838,1.230,0.862,1.528,1.107,0.474,0.827,0.780,��,8.6,��
2018/08/14,17:20,0.840,1.231,0.861,1.529,1.107,0.474,0.826,0.780,��,7.6,��
2018/08/14,17:30,0.839,1.228,0.862,1.528,1.108,0.476,0.824,0.779,��,7.0,��
2018/08/14,17:40,0.837,1.231,0.863,1.531,1.106,0.474,0.828,0.780,��,7.0,��
2018/08/14,17:50,0.837,1.231,0.863,1.530,1.109,0.475,0.826,0.781,��,6.9,��
2018/08/14,18:00,0.840,1.227,0.862,1.531,1.107,0.476,0.826,0.781,��,1.5,��
2018/08/14,18:10,0.839,1.231,0.862,1.533,1.108,0.476,0.827,0.780,�k��,2.0,��
2018/08/14,18:20,0.838,1.230,0.859,1.534,1.108,0.476,0.826,0.782,�k�k��,4.2,��
2018/08/14,18:30,0.840,1.230,0.861,1.532,1.111,0.475,0.828,0.781,�k��,3.5,��
2018/08/14,18:40,0.837,1.227,0.861,1.531,1.106,0.475,0.826,0.782,�k�k��,3.8,��
2018/08/14,18:50,0.836,1.229,0.861,1.531,1.107,0.474,0.826,0.781,�k�k��,3.1,��
2018/08/14,19:00,0.839,1.227,0.861,1.530,1.105,0.476,0.827,0.782,�k�k��,2.8,��
2018/08/14,19:10,0.841,1.228,0.859,1.531,1.107,0.474,0.824,0.781,�k�k��,3.0,��
2018/08/14,19:20,0.838,1.231,0.860,1.532,1.105,0.473,0.826,0.781,�k,2.9,��
2018/08/14,19:30,0.839,1.230,0.860,1.532,1.106,0.474,0.826,0.782,�k�k��,2.5,��
2018/08/14,19:40,0.839,1.231,0.860,1.532,1.107,0.474,0.826,0.781,�k,2.0,��
2018/08/14,19:50,0.840,1.229,0.862,1.532,1.107,0.474,0.827,0.782,�k,1.5,��
2018/08/14,20:00,0.840,1.228,0.860,1.532,1.109,0.474,0.829,0.781,�k,1.4,��
2018/08/14,20:10,0.839,1.228,0.860,1.528,1.108,0.474,0.825,0.780,�k�k��,1.4,��
2018/08/14,20:20,0.838,1.228,0.859,1.528,1.109,0.475,0.826,0.780,��,2.0,��
2018/08/14,20:30,0.838,1.230,0.860,1.529,1.107,0.474,0.826,0.780,���k��,1.5,��
2018/08/14,20:40,0.839,1.229,0.861,1.532,1.108,0.474,0.825,0.781,���쐼,0.9,��
2018/08/14,20:50,0.840,1.228,0.860,1.531,1.106,0.474,0.828,0.781,��,0.9,��
2018/08/14,21:00,0.840,1.227,0.860,1.532,1.107,0.474,0.825,0.782,�쐼,0.6,��
2018/08/14,21:10,0.838,1.228,0.861,1.533,1.106,0.473,0.824,0.783,��쐼,1.2,��
2018/08/14,21:20,0.838,1.227,0.861,1.533,1.108,0.476,0.827,0.780,�쐼,1.9,��
2018/08/14,21:30,0.840,1.228,0.860,1.533,1.108,0.477,0.826,0.780,��쐼,1.9,��
2018/08/14,21:40,0.838,1.231,0.859,1.532,1.112,0.476,0.827,0.782,��,1.4,��
2018/08/14,21:50,0.840,1.229,0.860,1.533,1.107,0.475,0.826,0.781,��,1.2,��
2018/08/14,22:00,0.838,1.229,0.861,1.533,1.106,0.476,0.825,0.781,��,1.2,��
2018/08/14,22:10,0.839,1.228,0.861,1.530,1.107,0.475,0.826,0.781,��,1.2,��
2018/08/14,22:20,0.836,1.228,0.862,1.531,1.108,0.474,0.825,0.781,��,1.1,��
2018/08/14,22:30,0.840,1.227,0.860,1.528,1.105,0.475,0.826,0.782,��쓌,0.6,��
2018/08/14,22:40,0.838,1.230,0.859,1.531,1.107,0.475,0.826,0.782,��,1.1,��
2018/08/14,22:50,0.838,1.227,0.860,1.534,1.108,0.475,0.826,0.780,��쓌,0.9,��
2018/08/14,23:00,0.838,1.228,0.862,1.533,1.106,0.476,0.825,0.780,��쓌,0.9,��
2018/08/14,23:10,0.838,1.227,0.858,1.532,1.106,0.474,0.825,0.781,�쓌,1.9,��
2018/08/14,23:20,0.837,1.229,0.860,1.529,1.104,0.475,0.826,0.781,��,2.0,��
2018/08/14,23:30,0.838,1.225,0.860,1.532,1.106,0.475,0.827,0.781,��쓌,1.7,��
2018/08/14,23:40,0.837,1.228,0.860,1.529,1.106,0.474,0.825,0.782,��쓌,1.7,��
2018/08/14,23:50,0.837,1.228,0.861,1.530,1.108,0.476,0.828,0.782,��쓌,2.3,��
